FYI1648 LICC-LIEE

Flight info

Callsign FYI1648
Flight time 1h 3m
Altitude 32000
Route LIBRO DCT ENEPA DCT PAL DCT KAPIL DCT TIVUK M732 CAR
Aircraft A320/M-SDE3FGHIRWY/LB1

Departure

Time 2026-04-29 14:54
Airport Catania-Fontanarossa Airport (LICC)

Arrival

Time 2026-04-29 15:57
Airport Cagliari Elmas Airport (LIEE)
Time Latitude Longitude Altitude Speed Heading
2026-04-29 14:34 37.46964 15.06473 48 ft 0 kts 19°
2026-04-29 14:46 37.46963 15.06472 51 ft 2 kts 19°
2026-04-29 14:46 37.46939 15.06461 51 ft 4 kts 21°
2026-04-29 14:47 37.46914 15.06449 49 ft 4 kts 21°
2026-04-29 14:47 37.46888 15.06438 51 ft 4 kts
2026-04-29 14:47 37.46865 15.06438 50 ft 4 kts 343°
2026-04-29 14:47 37.46843 15.06453 50 ft 4 kts 310°
2026-04-29 14:48 37.46831 15.06481 51 ft 4 kts 271°
2026-04-29 14:48 37.46831 15.06490 51 ft 0 kts 264°
2026-04-29 14:50 37.46830 15.06472 50 ft 10 kts 264°
2026-04-29 14:50 37.46821 15.06361 47 ft 12 kts 264°
2026-04-29 14:50 37.46811 15.06248 51 ft 18 kts 263°
2026-04-29 14:50 37.46793 15.06040 48 ft 25 kts 264°
2026-04-29 14:51 37.46777 15.05829 50 ft 23 kts 265°
2026-04-29 14:51 37.46757 15.05638 51 ft 21 kts 261°
2026-04-29 14:51 37.46744 15.05464 51 ft 19 kts 265°
2026-04-29 14:51 37.46718 15.05313 51 ft 17 kts 233°
2026-04-29 14:52 37.46669 15.05253 51 ft 8 kts 224°
2026-04-29 14:52 37.46633 15.05210 51 ft 7 kts 223°
2026-04-29 14:52 37.46555 15.05201 50 ft 14 kts 130°
2026-04-29 14:52 37.46563 15.05266 48 ft 7 kts 77°
2026-04-29 14:53 37.46565 15.05287 48 ft 0 kts 84°
2026-04-29 14:53 37.46565 15.05293 51 ft 7 kts 84°
2026-04-29 14:53 37.46597 15.05681 50 ft 81 kts 82°
2026-04-29 14:53 37.46680 15.06649 48 ft 138 kts 84°
2026-04-29 14:54 37.46781 15.07949 472 ft 151 kts 83°
2026-04-29 14:54 37.46874 15.09265 1178 ft 152 kts 81°
2026-04-29 14:54 37.47049 15.10576 1882 ft 154 kts 84°
2026-04-29 14:54 37.47250 15.11982 2227 ft 174 kts 81°
2026-04-29 14:55 37.47481 15.13575 2523 ft 197 kts 82°
2026-04-29 14:55 37.47737 15.15361 2834 ft 216 kts 82°
2026-04-29 14:55 37.48008 15.17268 3431 ft 224 kts 81°
2026-04-29 14:55 37.48282 15.19206 4200 ft 226 kts 80°
2026-04-29 14:56 37.48559 15.21165 4960 ft 229 kts 80°
2026-04-29 14:56 37.48839 15.23150 5697 ft 231 kts 80°
2026-04-29 14:56 37.49113 15.25153 6456 ft 233 kts 83°
2026-04-29 14:56 37.48952 15.27181 7111 ft 237 kts 113°
2026-04-29 14:57 37.47975 15.28837 7750 ft 240 kts 146°
2026-04-29 14:57 37.46446 15.29637 8372 ft 241 kts 173°
2026-04-29 14:57 37.44784 15.29975 9078 ft 243 kts 174°
2026-04-29 14:57 37.43113 15.29847 9768 ft 242 kts 203°
2026-04-29 14:58 37.41736 15.28686 10370 ft 244 kts 231°
2026-04-29 14:58 37.40999 15.26703 10622 ft 264 kts 261°
2026-04-29 14:58 37.40773 15.24311 10844 ft 287 kts 264°
2026-04-29 14:58 37.40556 15.21712 11050 ft 311 kts 264°
2026-04-29 14:59 37.40321 15.18931 11405 ft 326 kts 264°
2026-04-29 14:59 37.40071 15.16067 12060 ft 331 kts 263°
2026-04-29 14:59 37.39812 15.13177 12799 ft 334 kts 263°
2026-04-29 14:59 37.39547 15.10270 13535 ft 336 kts 264°
2026-04-29 15:00 37.39594 15.07332 14205 ft 339 kts 278°
2026-04-29 15:00 37.40084 15.04415 14824 ft 342 kts 281°
2026-04-29 15:00 37.40598 15.01481 15428 ft 346 kts 281°
2026-04-29 15:00 37.41114 14.98514 16028 ft 349 kts 281°
2026-04-29 15:01 37.41622 14.95562 16630 ft 352 kts 281°
2026-04-29 15:01 37.42141 14.92533 17222 ft 356 kts 281°
2026-04-29 15:01 37.42662 14.89482 17822 ft 358 kts 281°
2026-04-29 15:01 37.43187 14.86407 18396 ft 361 kts 282°
2026-04-29 15:02 37.43717 14.83301 18891 ft 365 kts 282°
2026-04-29 15:02 37.44323 14.80192 19383 ft 368 kts 288°
2026-04-29 15:02 37.45358 14.77233 19867 ft 372 kts 299°
2026-04-29 15:02 37.46811 14.74473 20374 ft 375 kts 303°
2026-04-29 15:03 37.48284 14.71806 20838 ft 378 kts 303°
2026-04-29 15:03 37.49786 14.69078 21329 ft 380 kts 303°
2026-04-29 15:03 37.51295 14.66332 21809 ft 383 kts 303°
2026-04-29 15:03 37.52813 14.63564 22272 ft 386 kts 303°
2026-04-29 15:04 37.54345 14.60768 22731 ft 388 kts 303°
2026-04-29 15:04 37.55881 14.57957 23192 ft 391 kts 303°
2026-04-29 15:04 37.57427 14.55121 23632 ft 394 kts 303°
2026-04-29 15:04 37.58984 14.52268 24011 ft 396 kts 303°
2026-04-29 15:05 37.60545 14.49406 24388 ft 398 kts 303°
2026-04-29 15:05 37.61593 14.47448 24648 ft 399 kts 301°
2026-04-29 15:05 37.63195 14.43280 25126 ft 400 kts 291°
2026-04-29 15:05 37.64254 14.40031 25516 ft 401 kts 291°
2026-04-29 15:06 37.65321 14.36768 25894 ft 403 kts 291°
2026-04-29 15:06 37.66394 14.33495 26257 ft 404 kts 291°
2026-04-29 15:06 37.67472 14.30210 26620 ft 406 kts 291°
2026-04-29 15:06 37.68556 14.26913 26975 ft 407 kts 291°
2026-04-29 15:07 37.69642 14.23602 27332 ft 409 kts 291°
2026-04-29 15:07 37.70730 14.20276 27687 ft 411 kts 291°
2026-04-29 15:07 37.71824 14.16925 28004 ft 413 kts 291°
2026-04-29 15:07 37.72920 14.13566 28364 ft 415 kts 291°
2026-04-29 15:08 37.74017 14.10188 28716 ft 416 kts 291°
2026-04-29 15:08 37.75115 14.06802 29039 ft 418 kts 291°
2026-04-29 15:08 37.76218 14.03398 29370 ft 419 kts 291°
2026-04-29 15:08 37.77324 13.99985 29689 ft 421 kts 291°
2026-04-29 15:09 37.78432 13.96557 30005 ft 422 kts 290°
2026-04-29 15:09 37.79537 13.93113 30289 ft 423 kts 290°
2026-04-29 15:09 37.80639 13.89662 30557 ft 423 kts 290°
2026-04-29 15:09 37.81742 13.86209 30851 ft 424 kts 290°
2026-04-29 15:10 37.82473 13.83922 31055 ft 423 kts 290°
2026-04-29 15:10 37.83572 13.80481 31465 ft 420 kts 290°
2026-04-29 15:10 37.84659 13.77072 31854 ft 418 kts 290°
2026-04-29 15:10 37.85749 13.73662 32012 ft 416 kts 290°
2026-04-29 15:11 37.86818 13.70315 32040 ft 405 kts 290°
2026-04-29 15:11 37.88898 13.63748 32045 ft 400 kts 290°
2026-04-29 15:12 37.90953 13.57218 32038 ft 399 kts 290°
2026-04-29 15:12 37.93016 13.50705 32037 ft 398 kts 290°
2026-04-29 15:13 37.95077 13.44180 32047 ft 399 kts 290°
2026-04-29 15:13 37.97137 13.37644 32051 ft 399 kts 289°
2026-04-29 15:14 37.99186 13.31108 32056 ft 398 kts 289°
2026-04-29 15:14 38.01232 13.24582 32049 ft 398 kts 289°
2026-04-29 15:15 38.03267 13.18053 32033 ft 398 kts 289°
2026-04-29 15:15 38.05300 13.11521 32043 ft 398 kts 289°
2026-04-29 15:16 38.07332 13.05009 32030 ft 397 kts 289°
2026-04-29 15:16 38.09359 12.98506 32037 ft 396 kts 289°
2026-04-29 15:17 38.11371 12.92006 32043 ft 395 kts 289°
2026-04-29 15:17 38.13381 12.85505 32035 ft 395 kts 289°
2026-04-29 15:18 38.15389 12.79010 32039 ft 395 kts 289°
2026-04-29 15:18 38.17395 12.72514 32031 ft 395 kts 289°
2026-04-29 15:19 38.19385 12.66010 32026 ft 395 kts 289°
2026-04-29 15:19 38.21378 12.59503 32036 ft 395 kts 289°
2026-04-29 15:20 38.23377 12.52977 32009 ft 397 kts 289°
2026-04-29 15:20 38.25373 12.46420 32005 ft 398 kts 289°
2026-04-29 15:21 38.27370 12.39840 32009 ft 399 kts 289°
2026-04-29 15:21 38.29373 12.33255 32008 ft 399 kts 289°
2026-04-29 15:22 38.31370 12.26662 32010 ft 399 kts 289°
2026-04-29 15:22 38.33360 12.20066 32013 ft 399 kts 288°
2026-04-29 15:23 38.35334 12.13511 32006 ft 399 kts 288°
2026-04-29 15:23 38.37106 12.06825 32007 ft 398 kts 284°
2026-04-29 15:24 38.38635 12.00062 32003 ft 397 kts 284°
2026-04-29 15:24 38.40151 11.93289 32004 ft 397 kts 284°
2026-04-29 15:25 38.41714 11.86545 32004 ft 397 kts 284°
2026-04-29 15:25 38.43294 11.79801 32005 ft 397 kts 284°
2026-04-29 15:26 38.44868 11.73062 31996 ft 396 kts 284°
2026-04-29 15:26 38.46434 11.66320 31996 ft 396 kts 284°
2026-04-29 15:27 38.47992 11.59585 31997 ft 396 kts 284°
2026-04-29 15:27 38.49547 11.52851 31996 ft 395 kts 284°
2026-04-29 15:28 38.51095 11.46125 31997 ft 395 kts 284°
2026-04-29 15:28 38.52634 11.39399 31993 ft 394 kts 284°
2026-04-29 15:29 38.54170 11.32675 31992 ft 394 kts 284°
2026-04-29 15:30 38.57232 11.19241 31988 ft 393 kts 284°
2026-04-29 15:30 38.58754 11.12528 31988 ft 393 kts 284°
2026-04-29 15:31 38.60267 11.05816 31982 ft 394 kts 284°
2026-04-29 15:31 38.61785 10.99063 31962 ft 396 kts 284°
2026-04-29 15:32 38.63306 10.92283 31960 ft 397 kts 284°
2026-04-29 15:32 38.64827 10.85481 31963 ft 398 kts 284°
2026-04-29 15:33 38.66346 10.78666 31963 ft 399 kts 284°
2026-04-29 15:33 38.67867 10.71843 31963 ft 399 kts 284°
2026-04-29 15:34 38.69384 10.65010 31966 ft 399 kts 283°
2026-04-29 15:34 38.70893 10.58177 31969 ft 399 kts 283°
2026-04-29 15:35 38.72402 10.51338 31980 ft 399 kts 283°
2026-04-29 15:35 38.73907 10.44505 31982 ft 398 kts 283°
2026-04-29 15:36 38.75404 10.37677 31983 ft 398 kts 283°
2026-04-29 15:36 38.76144 10.34309 31440 ft 399 kts 283°
2026-04-29 15:36 38.76901 10.30851 30910 ft 396 kts 284°
2026-04-29 15:36 38.77628 10.27516 30430 ft 392 kts 284°
2026-04-29 15:37 38.78357 10.24164 29934 ft 389 kts 284°
2026-04-29 15:37 38.79080 10.20835 29407 ft 385 kts 284°
2026-04-29 15:37 38.79792 10.17556 28953 ft 380 kts 284°
2026-04-29 15:37 38.80495 10.14310 28498 ft 375 kts 284°
2026-04-29 15:38 38.81188 10.11109 28042 ft 371 kts 284°
2026-04-29 15:38 38.81872 10.07945 27611 ft 366 kts 284°
2026-04-29 15:38 38.82548 10.04814 27164 ft 362 kts 284°
2026-04-29 15:38 38.83209 10.01725 26766 ft 357 kts 284°
2026-04-29 15:39 38.83861 9.98668 26353 ft 354 kts 284°
2026-04-29 15:39 38.84530 9.95648 25932 ft 351 kts 288°
2026-04-29 15:39 38.85524 9.92803 25499 ft 350 kts 298°
2026-04-29 15:39 38.86915 9.90243 25063 ft 350 kts 306°
2026-04-29 15:40 38.88431 9.87812 24629 ft 348 kts 306°
2026-04-29 15:40 38.89940 9.85388 24190 ft 346 kts 306°
2026-04-29 15:40 38.91440 9.82973 23742 ft 346 kts 306°
2026-04-29 15:40 38.92936 9.80562 23245 ft 345 kts 306°
2026-04-29 15:41 38.94419 9.78158 22789 ft 342 kts 306°
2026-04-29 15:41 38.95892 9.75766 22324 ft 341 kts 306°
2026-04-29 15:41 38.97359 9.73385 21879 ft 339 kts 306°
2026-04-29 15:41 38.98814 9.71016 21437 ft 337 kts 306°
2026-04-29 15:42 39.00261 9.68650 21004 ft 336 kts 306°
2026-04-29 15:42 39.01699 9.66294 20552 ft 335 kts 306°
2026-04-29 15:42 39.03136 9.63936 20115 ft 334 kts 306°
2026-04-29 15:42 39.04568 9.61588 19677 ft 333 kts 306°
2026-04-29 15:43 39.05999 9.59244 19241 ft 333 kts 306°
2026-04-29 15:43 39.07428 9.56901 18804 ft 333 kts 306°
2026-04-29 15:43 39.08857 9.54557 18368 ft 333 kts 306°
2026-04-29 15:43 39.10441 9.52377 17894 ft 335 kts 318°
2026-04-29 15:44 39.12382 9.50712 17449 ft 337 kts 331°
2026-04-29 15:44 39.14584 9.49670 17005 ft 339 kts 343°
2026-04-29 15:44 39.16875 9.48947 16577 ft 338 kts 344°
2026-04-29 15:44 39.19157 9.48220 16139 ft 338 kts 343°
2026-04-29 15:45 39.21436 9.47486 15709 ft 338 kts 344°
2026-04-29 15:45 39.23717 9.46748 15273 ft 338 kts 344°
2026-04-29 15:45 39.25992 9.46009 14837 ft 337 kts 343°
2026-04-29 15:45 39.28269 9.45269 14401 ft 337 kts 343°
2026-04-29 15:46 39.30540 9.44532 13955 ft 337 kts 343°
2026-04-29 15:46 39.32814 9.43793 13491 ft 337 kts 343°
2026-04-29 15:46 39.35080 9.43056 13048 ft 335 kts 343°
2026-04-29 15:46 39.37247 9.42053 12622 ft 329 kts 330°
2026-04-29 15:47 39.39104 9.40389 12227 ft 323 kts 315°
2026-04-29 15:47 39.40542 9.38199 11803 ft 318 kts 301°
2026-04-29 15:47 39.41600 9.35709 11373 ft 314 kts 296°
2026-04-29 15:47 39.42617 9.33220 10968 ft 312 kts 296°
2026-04-29 15:48 39.43632 9.30744 10540 ft 311 kts 296°
2026-04-29 15:48 39.44643 9.28277 10141 ft 309 kts 296°
2026-04-29 15:48 39.45634 9.25865 10009 ft 298 kts 296°
2026-04-29 15:48 39.46591 9.23532 9863 ft 289 kts 296°
2026-04-29 15:49 39.47524 9.21252 9482 ft 284 kts 295°
2026-04-29 15:49 39.48431 9.19030 8839 ft 283 kts 295°
2026-04-29 15:49 39.49339 9.16807 8592 ft 266 kts 296°
2026-04-29 15:49 39.50174 9.14768 8146 ft 259 kts 295°
2026-04-29 15:50 39.51019 9.12689 7491 ft 262 kts 295°
2026-04-29 15:50 39.51855 9.10611 7190 ft 249 kts 291°
2026-04-29 15:50 39.52201 9.08533 7035 ft 230 kts 266°
2026-04-29 15:50 39.51816 9.06572 6847 ft 227 kts 240°
2026-04-29 15:51 39.50804 9.05055 6487 ft 228 kts 217°
2026-04-29 15:51 39.49511 9.03852 6134 ft 229 kts 216°
2026-04-29 15:51 39.48218 9.02642 5797 ft 230 kts 216°
2026-04-29 15:51 39.46923 9.01425 5468 ft 230 kts 216°
2026-04-29 15:52 39.45631 9.00207 5139 ft 230 kts 216°
2026-04-29 15:52 39.44335 8.98986 4812 ft 230 kts 215°
2026-04-29 15:52 39.43037 8.97765 4467 ft 230 kts 215°
2026-04-29 15:52 39.41763 8.96567 4140 ft 222 kts 215°
2026-04-29 15:53 39.40537 8.95414 3831 ft 215 kts 214°
2026-04-29 15:53 39.39346 8.94296 3519 ft 208 kts 215°
2026-04-29 15:53 39.38191 8.93211 3232 ft 203 kts 212°
2026-04-29 15:53 39.36924 8.92588 2931 ft 194 kts 176°
2026-04-29 15:54 39.35710 8.93161 2667 ft 188 kts 138°
2026-04-29 15:54 39.34777 8.94331 2418 ft 185 kts 137°
2026-04-29 15:54 39.33836 8.95430 2132 ft 178 kts 138°
2026-04-29 15:54 39.32937 8.96452 1873 ft 167 kts 137°
2026-04-29 15:55 39.32101 8.97404 1658 ft 154 kts 137°
2026-04-29 15:55 39.31325 8.98292 1443 ft 143 kts 137°
2026-04-29 15:55 39.30598 8.99127 1248 ft 139 kts 137°
2026-04-29 15:55 39.29878 8.99957 1056 ft 138 kts 138°
2026-04-29 15:56 39.29401 9.00511 933 ft 137 kts 139°
2026-04-29 15:56 39.28705 9.01323 743 ft 137 kts 139°
2026-04-29 15:56 39.27990 9.02142 569 ft 135 kts 140°
2026-04-29 15:56 39.27285 9.02936 359 ft 134 kts 139°
2026-04-29 15:57 39.26595 9.03741 201 ft 133 kts 140°
2026-04-29 15:57 39.25909 9.04544 31 ft 132 kts 141°
2026-04-29 15:57 39.25321 9.05231 14 ft 82 kts 138°
2026-04-29 15:57 39.25085 9.05501 16 ft 25 kts 136°
2026-04-29 15:58 39.25051 9.05611 18 ft 13 kts 62°
2026-04-29 15:58 39.25086 9.05689 16 ft 6 kts 59°
2026-04-29 15:58 39.25106 9.05732 16 ft 5 kts 61°
2026-04-29 15:58 39.25122 9.05770 15 ft 5 kts 61°
2026-04-29 15:59 39.25136 9.05803 15 ft 4 kts 61°
2026-04-29 15:59 39.25148 9.05831 15 ft 3 kts 61°
2026-04-29 15:59 39.25157 9.05853 17 ft 2 kts 61°
2026-04-29 15:59 39.25177 9.05888 15 ft 7 kts 39°
2026-04-29 16:00 39.25184 9.05892 15 ft 0 kts 27°
2026-04-29 16:00 39.25207 9.05896 15 ft 4 kts
2026-04-29 16:00 39.25219 9.05899 15 ft 4 kts 10°
2026-04-29 16:00 39.25226 9.05901 15 ft 0 kts